Showing default

PAKTES 1A, 43529

Orbit data source: Space-Track

PAKTES 1A, 43529 is a payload satellite owned by SUPARCO (PK) in SSO that was launched on Mon, 09 Jul 2018 UTC via a CHANG ZHENG 2C launch vehicle from the Jiuquan Satellite Launch Center, China (JSC). Payload-class satellites include a variety of spacecraft equipped with specific instruments for various scientific and technological missions. These include communications satellites like Starlink; space stations such as the ISS; scientific satellites like the Hubble; Earth observation satellites from companies like Planet Labs, Umbra, and HawkEye 360; GPS; miniature CubeSats for education and research; and military/defense satellites.

Loading next visibility...
Identifier
43529, 2018-056A
Orbit
SSO
Country
Flag of UnknownUnknown / PAKI
Related business
Manufacturer
SUPARCO
Mission
Operational Civil Imaging
Bus & Motor
PAKTES, Unknown motor
Mass
285 kg wet, 285 kg dry
Launch date (UTC)
2018-07-09 (7 years ago)
Launch vehicle
CHANG ZHENG 2C
Launch site
Jiuquan Satellite Launch Center, China (JSC)
Object type
Payload
Rocket body
Debris
Shape & HBR
Box + 2 Pan, 4.3 m
Radar Cross Section
14.475 m², Large (>1 m²)

Expand to show TLE details & history
Last TLE update: 10 hours ago

TLE from 10 hours ago
0 PAKTES 1A
1 43529U 18056A   25259.31870612  .00002595  00000-0  22907-3 0  9998
2 43529  98.0910  40.1311 0021175 301.3874  58.5275 14.97183378390919
Epoch: 2025-09-16T07:38Z
TLE epoch observation values (Epoch: 2025-09-16T07:38:56.208Z)
Latitude
-0.00005°
Longitude
-70.11381°
Altitude
570.977 km
Speed
7.58 km/s
True Right ascension
02h 40m 31s
True Declination
0° 00' 00"
Sunlit
Object was in full shadow at epoch
Visualization orbit readout
Latitude
Unknown
Longitude
Unknown
Altitude
Unknown
Speed
Unknown
Apparent Right ascension
Unknown
Apparent Declination
Unknown
Sunlit
N/A
Visualization observer readout
Local Sidereal Time
10:16:15
Azimuth
Unknown
Elevation
Unknown
Doppler factor
Unknown
Orbital elements
Apogee altitude
587.349 km
Perigee altitude
557.912 km
Semi-major axis
6,950.768 km
Eccentricity
0.00212
Inclination
98.091°
RAAN
40.1311°
Arg. of periapsis
301.3874°
True anomaly
58.73474°
Mean anomaly
58.5275°
Eccentric anomaly
58.63109°
Mean motion
3.74536 °/min
Orbital period
96.12 mins
BSTAR
0.00022907
Loading maneuver chart data...
Computing Atmospheric mass density...
Loading historical data...
Loading historical data...
Loading historical data...
Loading historical data...
Loading historical data...
Loading historical data...
Loading historical data...

Documentation

Showing up to 5 results
|